DW2070 Weather Reports


Display with metric or nautical units.
time (UTC)temp
F
wind
direction
speed
MPH
gust
MPH
rain 1hr
in
rain 24hr
in
rain mn
in
humidity
%
barometer
mb
20260905162004 76 0 0.0 0.0 0.00 0.00 0.00 64 1014.7
20260905161003 74 0 0.0 0.0 0.00 0.00 0.00 67 1014.7
20260905160004 72 0 0.0 0.0 0.00 0.00 0.00 76 1014.7
20260905155004 66 0 0.0 0.0 0.00 0.00 0.00 85 1014.6
20260905154024 64 0 1.0 1.0 0.00 0.00 0.00 85 1014.6
20260905153004 63 0 0.0 0.0 0.00 0.00 0.00 85 1014.5
20260905152003 63 107 2.0 2.0 0.00 0.00 0.00 85 1014.5
20260905151003 62 102 2.0 4.0 0.00 0.00 0.00 85 1014.5
20260905150003 61 100 2.0 4.0 0.00 0.00 0.00 86 1014.4
20260905145003 61 105 2.0 6.0 0.00 0.00 0.00 86 1014.3
20260905144004 60 102 2.0 4.0 0.00 0.00 0.00 86 1014.3
20260905143003 60 112 2.0 6.0 0.00 0.00 0.00 86 1014.2
20260905142003 60 81 1.0 4.0 0.00 0.00 0.00 86 1014.1
20260905141003 60 85 1.0 4.0 0.00 0.00 0.00 86 1014.0
20260905140004 60 71 2.0 4.0 0.00 0.00 0.00 86 1013.9
20260905135003 60 73 2.0 6.0 0.00 0.00 0.00 86 1013.8
20260905134003 60 59 2.0 5.0 0.00 0.00 0.00 86 1013.6
20260905132003 60 64 3.0 5.0 0.00 0.00 0.00 86 1013.4
20260905131004 60 67 4.0 6.0 0.00 0.00 0.00 86 1013.3
20260905130025 60 69 4.0 9.0 0.00 0.00 0.00 86 1013.3
20260905125003 60 66 4.0 9.0 0.00 0.00 0.00 87 1013.3
20260905124003 60 61 4.0 7.0 0.00 0.00 0.00 87 1013.4
20260905122003 61 63 4.0 9.0 0.00 0.00 0.00 87 1013.2
20260905121024 61 63 3.0 8.0 0.00 0.00 0.00 87 1013.1
20260905120003 61 71 3.0 6.0 0.00 0.00 0.00 87 1013.1
20260905115003 61 78 3.0 7.0 0.00 0.00 0.00 87 1013.2
20260905114003 61 82 2.0 6.0 0.00 0.00 0.00 87 1013.2
20260905113003 61 84 3.0 6.0 0.00 0.00 0.00 87 1013.2
20260905112003 61 66 3.0 6.0 0.00 0.00 0.00 87 1013.2
20260905110003 61 60 3.0 6.0 0.00 0.00 0.00 87 1013.3
20260905105003 61 64 3.0 8.0 0.00 0.00 0.00 86 1013.3
20260905104003 61 60 4.0 6.0 0.00 0.00 0.00 86 1013.3
20260905103003 61 67 3.0 7.0 0.00 0.00 0.00 86 1013.2
20260905102003 61 62 2.0 4.0 0.00 0.00 0.00 86 1013.2
20260905101024 61 57 2.0 5.0 0.00 0.00 0.00 86 1013.3
20260905100003 62 55 2.0 5.0 0.00 0.00 0.00 86 1013.3
20260905095003 62 57 2.0 5.0 0.00 0.00 0.00 86 1013.5
20260905094003 62 62 2.0 5.0 0.00 0.00 0.00 86 1013.5
20260905093003 62 71 3.0 6.0 0.00 0.00 0.00 86 1013.5
20260905092003 62 66 2.0 5.0 0.00 0.00 0.00 86 1013.4
20260905091003 63 65 3.0 6.0 0.00 0.00 0.00 86 1013.5
20260905090003 63 67 2.0 6.0 0.00 0.00 0.00 85 1013.7
20260905085003 63 66 2.0 4.0 0.00 0.00 0.00 85 1013.8
20260905084003 64 67 2.0 4.0 0.00 0.00 0.00 84 1013.9
20260905083024 64 67 1.0 4.0 0.00 0.00 0.00 84 1014.1
20260905082003 64 67 1.0 5.0 0.00 0.00 0.00 83 1013.9
20260905081003 65 67 3.0 5.0 0.00 0.00 0.00 83 1013.9
20260905080003 65 151 2.0 6.0 0.00 0.00 0.00 82 1014.0
20260905075003 66 199 2.0 4.0 0.00 0.00 0.00 82 1014.1
20260905074003 66 202 1.0 4.0 0.00 0.00 0.00 82 1013.9
20260905073003 67 204 2.0 4.0 0.00 0.00 0.00 82 1014.1
20260905072005 67 205 1.0 4.0 0.00 0.00 0.00 82 1014.0
20260905071005 68 0 0.0 4.0 0.00 0.00 0.00 82 1014.0
20260905070005 68 0 0.0 0.0 0.00 0.00 0.00 84 1013.9
20260905065005 68 0 0.0 0.0 0.00 0.00 0.00 84 1013.7
20260905064004 68 0 0.0 1.0 0.00 0.00 0.00 84 1013.8
20260905063005 68 256 1.0 2.0 0.00 0.00 0.00 84 1013.7
20260905062005 68 256 1.0 3.0 0.00 0.00 0.00 84 1013.7
20260905060004 68 260 0.0 2.0 0.00 0.00 0.00 84 1013.8
20260905055004 68 260 1.0 1.0 0.00 0.00 0.00 84 1013.8
20260905054026 68 260 1.0 4.0 0.00 0.00 0.00 84 1013.6
20260905053004 68 0 0.0 3.0 0.00 0.00 0.00 83 1013.7
20260905052005 68 0 0.0 0.0 0.00 0.00 0.00 83 1013.8
20260905050005 68 266 1.0 4.0 0.00 0.00 0.00 83 1013.7
20260905045005 68 272 1.0 3.0 0.00 0.00 0.00 83 1013.7
20260905044005 68 274 1.0 3.0 0.00 0.00 0.00 83 1013.7
20260905042005 68 0 0.0 3.0 0.00 0.00 0.00 81 1013.6
20260905041004 68 0 0.0 2.0 0.00 0.00 0.00 80 1013.6
20260905040004 69 275 0.0 2.0 0.00 0.00 0.00 80 1013.2
20260905035005 69 275 1.0 2.0 0.00 0.00 0.00 80 1013.3
20260905034004 69 275 1.0 6.0 0.00 0.00 0.00 79 1013.3
20260905033004 69 271 2.0 7.0 0.00 0.00 0.00 79 1013.2
20260905032004 70 293 1.0 4.0 0.00 0.00 0.00 79 1013.0
20260905031004 70 299 1.0 4.0 0.00 0.00 0.00 78 1013.0
20260905030004 70 306 3.0 7.0 0.00 0.00 0.00 77 1013.0
20260905025025 71 290 2.0 7.0 0.00 0.00 0.00 76 1013.0
20260905024025 71 280 3.0 7.0 0.00 0.00 0.00 75 1013.1
20260905023025 72 282 2.0 8.0 0.00 0.00 0.00 74 1013.0
20260905022004 73 273 3.0 9.0 0.00 0.00 0.00 72 1013.0
20260905021004 73 270 3.0 9.0 0.00 0.00 0.00 71 1012.9
20260905020004 74 298 2.0 8.0 0.00 0.00 0.00 70 1013.0
20260905015004 75 297 3.0 9.0 0.00 0.00 0.00 68 1013.0
20260905013004 77 280 3.0 9.0 0.00 0.00 0.00 63 1013.0
20260905012004 78 268 4.0 9.0 0.00 0.00 0.00 63 1013.1
20260905011004 78 266 4.0 9.0 0.00 0.00 0.00 61 1013.1
20260905010004 79 249 4.0 10.0 0.00 0.00 0.00 58 1013.1
20260905005004 79 277 4.0 10.0 0.00 0.00 0.00 58 1013.0
20260905004025 80 259 4.0 12.0 0.00 0.00 0.00 59 1013.0
20260905003004 79 245 5.0 11.0 0.00 0.00 0.00 60 1013.0
20260905002004 79 251 5.0 11.0 0.00 0.00 0.00 59 1013.0
20260905001025 79 249 5.0 12.0 0.00 0.00 0.00 60 1013.0
20260905000004 79 229 4.0 11.0 0.00 0.00 0.00 60 1012.9
20260904233004 79 229 5.0 12.0 0.00 0.00 0.00 60 1013.1
20260904232004 80 236 5.0 12.0 0.00 0.00 0.00 60 1013.1
20260904231025 80 238 6.0 13.0 0.00 0.00 0.00 60 1013.1
20260904230004 80 249 5.0 12.0 0.00 0.00 0.00 60 1013.1
20260904225004 80 247 7.0 14.0 0.00 0.00 0.00 61 1013.2
20260904224004 80 239 6.0 14.0 0.00 0.00 0.00 60 1013.3
20260904221025 80 252 7.0 16.0 0.00 0.00 0.00 60 1013.3
20260904220004 80 246 7.0 14.0 0.00 0.00 0.00 61 1013.3
20260904213025 80 247 7.0 16.0 0.00 0.00 0.00 60 1013.4
20260904212025 80 246 6.0 14.0 0.00 0.00 0.00 61 1013.4
20260904211004 80 252 6.0 13.0 0.00 0.00 0.00 61 1013.2
20260904210004 80 249 7.0 12.0 0.00 0.00 0.00 61 1013.3
20260904205004 79 253 7.0 15.0 0.00 0.00 0.00 62 1013.4
20260904204004 80 243 7.0 14.0 0.00 0.00 0.00 62 1013.5
20260904203004 80 252 7.0 16.0 0.00 0.00 0.00 61 1013.6
20260904202025 80 256 6.0 14.0 0.00 0.00 0.00 61 1013.6
20260904201004 81 248 5.0 11.0 0.00 0.00 0.00 59 1013.5
20260904195004 81 245 5.0 14.0 0.00 0.00 0.00 58 1013.5
20260904194004 81 247 4.0 12.0 0.00 0.00 0.00 58 1013.5
20260904193004 82 242 3.0 9.0 0.00 0.00 0.00 57 1013.6
20260904192004 82 260 3.0 9.0 0.00 0.00 0.00 56 1013.6
20260904191025 81 275 3.0 10.0 0.00 0.00 0.00 58 1013.6
20260904190004 81 229 4.0 8.0 0.00 0.00 0.00 55 1013.8
20260904185004 80 238 3.0 9.0 0.00 0.00 0.00 55 1013.9
20260904184004 80 223 2.0 7.0 0.00 0.00 0.00 56 1013.9
20260904183004 80 237 3.0 9.0 0.00 0.00 0.00 54 1014.0
20260904182004 80 218 3.0 9.0 0.00 0.00 0.00 54 1014.2
20260904181004 80 271 2.0 7.0 0.00 0.00 0.00 52 1014.2
20260904180004 81 336 2.0 5.0 0.00 0.00 0.00 51 1014.3
20260904175004 80 240 1.0 5.0 0.00 0.00 0.00 51 1014.4
20260904174004 79 243 1.0 3.0 0.00 0.00 0.00 54 1014.3
20260904173004 79 250 2.0 6.0 0.00 0.00 0.00 55 1014.4
20260904172004 79 243 1.0 5.0 0.00 0.00 0.00 55 1014.3
20260904171004 78 189 2.0 5.0 0.00 0.00 0.00 56 1014.2
20260904170025 77 193 2.0 5.0 0.00 0.00 0.00 58 1014.2
20260904165003 77 180 1.0 5.0 0.00 0.00 0.00 59 1014.2
20260904164004 77 89 1.0 3.0 0.00 0.00 0.00 59 1014.1
20260904163024 77 76 1.0 3.0 0.00 0.00 0.00 60 1014.1